Theta_e
311 310 309 307 307 308 308 308 307 307 306 305 304 304 303 302 298 289 283 284 282 277 279 280 280 278 278 277 271 272 272 270 267 263 260 258 258 261 261 264 266 264 260 256 253 256 261 272 275 272 276 277 278 279
311 309 308 307 306 307 308 307 307 306 305 304 304 304 303 300 298 291 282 285 285 279 280 283 285 285 280 279 277 277 275 271 274 265 262 261 260 256 256 261 268 266 267 264 267 267 272 274 275 276 278 278 277 278
309 308 308 306 307 308 308 307 306 306 305 304 304 303 302 300 298 290 282 282 281 276 280 277 278 285 286 285 287 276 275 280 276 276 267 263 264 264 260 263 266 268 267 266 268 270 270 273 274 276 277 277 277 278
308 308 307 305 306 307 307 306 306 305 304 304 304 303 302 299 297 291 284 283 281 274 272 273 283 281 284 282 282 282 280 280 277 273 264 258 260 269 265 268 268 269 268 266 267 269 267 269 271 273 274 273 273 272
307 307 305 305 306 306 306 306 305 304 303 304 303 302 302 299 296 288 285 285 283 280 267 276 281 281 281 282 282 281 281 279 272 266 261 262 266 266 264 264 263 268 270 269 269 273 272 272 268 267 269 270 269 271
307 306 305 305 306 306 306 305 304 303 303 303 303 302 300 297 294 285 278 284 285 281 272 265 272 273 278 281 280 280 279 275 272 267 271 274 272 268 258 258 267 265 264 269 273 272 272 269 268 268 269 266 263 265
306 306 305 305 305 305 305 305 303 303 303 303 302 301 298 296 286 280 279 283 288 282 272 272 268 278 277 279 273 275 276 270 272 268 265 268 273 273 268 261 270 267 266 267 266 269 272 269 272 265 267 265 264 262
306 305 305 305 305 305 304 304 302 302 303 301 301 299 298 297 291 282 285 292 286 276 272 267 266 275 276 266 266 276 268 265 270 267 273 269 267 272 267 268 267 265 262 265 266 263 267 264 264 264 262 263 264 265
305 304 304 304 304 304 304 303 302 302 301 301 299 297 289 284 277 279 293 289 279 280 268 259 263 262 271 272 266 274 267 264 263 263 265 266 262 264 269 269 266 268 271 270 260 260 262 265 264 263 263 263 266 267
304 304 304 303 303 303 303 302 302 301 300 299 291 283 281 281 292 291 279 275 276 270 267 263 258 267 275 274 272 264 263 262 260 260 263 256 262 268 270 268 267 267 271 269 267 268 264 265 266 265 267 266 267 266
303 303 303 303 302 302 301 301 301 299 298 284 278 280 284 289 279 271 270 270 265 267 262 263 262 270 269 265 270 263 257 255 257 259 258 251 259 268 267 264 264 267 269 268 267 267 266 267 266 267 265 264 264 263
303 303 302 302 302 301 301 301 299 293 285 285 285 283 276 272 270 271 268 270 270 270 269 267 265 264 264 261 263 261 256 254 259 250 256 255 264 266 264 266 266 265 264 264 263 266 265 267 264 264 263 262 263 261
303 302 302 302 301 301 301 300 297 294 293 285 281 274 275 271 272 271 270 270 265 264 265 262 263 264 260 260 257 257 257 258 251 253 258 263 264 263 261 260 261 259 258 259 261 261 262 262 261 261 261 257 256 257
303 302 301 301 301 300 300 298 296 295 287 282 276 274 273 270 271 269 268 268 266 265 265 263 263 263 255 259 254 261 253 253 253 255 260 262 262 261 258 257 259 260 258 259 259 258 260 262 260 257 256 254 255 257
302 301 300 300 300 300 298 297 297 286 285 279 275 271 271 266 259 256 256 263 261 271 265 263 260 262 252 257 250 253 256 256 258 263 262 262 259 257 258 257 256 257 256 256 254 256 257 257 258 256 252 250 251 251
301 300 298 300 299 299 297 297 288 285 279 274 268 267 264 266 265 259 262 267 262 267 262 264 257 259 257 257 257 258 262 262 264 261 263 256 255 255 257 255 257 255 256 255 253 253 253 254 257 256 250 250 250 251
299 293 299 299 298 297 297 288 286 280 279 270 267 261 267 267 267 264 264 266 266 266 263 260 261 261 257 255 256 256 261 263 263 262 257 258 261 259 257 255 254 253 255 254 253 252 251 248 249 255 259 254 250 249
294 297 298 298 296 294 286 286 283 279 271 265 269 265 265 262 265 259 257 265 269 259 262 264 260 257 260 260 259 263 262 258 254 258 258 257 256 255 257 261 253 254 253 251 252 250 249 253 256 257 253 250 250 249
296 297 296 296 293 288 285 284 281 272 264 263 264 263 266 264 263 264 269 264 258 261 265 259 260 260 262 261 263 258 256 261 266 262 257 255 256 262 261 257 255 253 253 251 252 253 251 250 252 251 250 249 252 248
297 296 296 295 292 281 276 275 279 273 270 267 266 266 266 265 263 268 263 257 262 262 264 263 265 265 265 264 264 263 262 264 266 265 264 262 259 261 263 262 261 255 253 250 250 251 251 252 249 247 247 248 251 250
294 294 294 290 275 274 274 272 270 270 266 263 265 268 266 265 266 264 265 258 266 263 264 263 262 261 255 256 255 257 260 267 268 272 271 268 262 265 264 261 259 257 258 256 259 254 252 253 250 247 248 247 246 246
290 293 287 280 273 271 269 269 270 269 265 262 266 268 266 266 264 264 259 265 264 267 264 262 260 259 260 262 261 258 263 260 259 266 269 270 267 266 264 264 263 262 260 262 262 262 257 251 247 247 251 247 250 251
290 288 278 276 272 271 267 268 270 271 267 264 266 266 263 262 259 259 265 262 264 262 260 261 259 255 259 255 256 257 259 263 264 262 266 267 264 264 265 263 263 266 264 261 260 259 257 255 255 255 254 254 255 254
283 274 273 270 269 264 268 267 269 268 267 265 265 261 261 261 260 260 265 264 264 258 261 260 260 264 262 262 261 260 258 260 263 262 260 265 263 258 260 259 258 258 260 260 259 258 257 257 257 257 257 256 256 255
277 269 270 264 267 267 265 265 265 267 263 262 264 261 260 259 260 262 266 268 259 255 254 254 257 258 265 259 256 256 254 258 267 264 259 260 258 256 257 255 254 255 256 259 258 258 256 257 258 258 258 257 256 255
266 264 268 268 266 268 264 264 265 262 262 261 259 257 258 264 267 267 267 262 254 252 250 252 251 257 258 252 257 258 257 253 259 263 256 256 260 263 262 261 259 258 257 259 259 258 257 258 258 257 257 257 256 255
266 264 263 263 265 264 262 263 265 266 265 263 257 256 263 269 267 258 258 257 255 252 248 248 248 250 253 252 251 251 251 253 258 259 257 256 255 255 259 262 262 262 259 260 261 260 259 258 258 258 256 256 255 256
260 260 264 262 263 263 266 267 266 265 261 260 264 264 271 268 261 255 256 257 256 253 250 249 248 248 250 251 251 253 255 256 258 259 259 259 258 257 256 257 261 263 260 261 261 261 260 259 258 257 256 255 255 254
256 257 260 260 259 256 252 258 257 256 255 262 263 259 253 253 253 254 255 255 255 254 251 250 251 249 251 252 253 253 254 254 257 257 256 255 256 256 257 258 259 260 261 261 263 260 259 259 258 257 257 256 255 255
256 255 257 254 255 252 251 251 253 254 256 256 255 254 254 253 254 255 255 254 255 253 251 249 248 249 250 251 253 254 252 252 253 258 259 257 258 257 257 259 259 260 260 260 261 262 264 259 259 257 256 255 255 254
254 256 256 254 253 254 254 254 256 258 257 257 257 255 253 253 254 255 254 253 253 252 252 252 253 252 253 252 253 254 256 254 252 253 254 258 259 259 259 260 261 262 262 261 259 258 257 257 256 255 254 253 252 252
255 256 257 256 255 256 255 257 257 257 256 256 255 256 255 254 251 252 254 253 253 252 253 252 251 252 253 251 251 252 256 252 254 256 258 260 259 259 259 260 260 259 258 258 258 257 257 256 255 254 252 251 250 249
255 257 259 257 257 257 257 260 259 256 255 254 252 253 251 252 249 250 253 252 251 251 252 253 253 254 255 254 254 256 256 255 258 264 262 261 260 260 259 259 259 259 258 258 257 256 255 254 253 252 252 250 248 247
Wind_Speed
37 39 40 39 37 36 34 33 31 29 27 24 21 19 18 19 18 6 2 3 5 4 2 2 2 2 2 2 2 4 4 5 5 6 4 2 3 3 2 3 0 2 3 0 3 7 4 3 5 3 2 3 2 2
35 38 39 39 37 36 34 34 32 29 27 25 22 20 20 20 15 8 5 2 3 7 4 3 5 5 3 2 0 3 2 2 3 5 2 3 2 3 1 3 3 4 5 4 6 7 4 4 1 1 4 3 1 4
39 40 40 40 38 35 36 34 32 30 27 25 24 22 21 19 13 8 5 4 5 5 3 4 2 3 3 3 0 1 3 1 1 2 4 2 4 3 2 4 3 3 2 0 5 4 4 1 3 1 3 3 3 5
39 40 40 40 38 37 36 34 33 31 29 26 25 22 20 19 17 9 5 4 6 4 6 4 2 3 2 2 2 3 1 2 4 2 3 4 3 2 2 3 2 4 2 2 4 6 5 4 5 2 3 3 3 3
40 41 41 41 39 39 37 36 34 32 29 27 25 23 21 19 18 10 4 2 3 6 6 3 3 3 4 4 5 3 2 2 2 3 4 0 0 3 2 2 4 5 7 4 6 3 5 5 3 1 2 1 1 3
42 42 42 41 39 39 38 36 34 31 30 28 26 24 23 23 18 5 5 2 2 4 8 3 3 4 6 5 6 6 3 3 3 4 2 1 2 3 4 3 6 4 3 1 2 1 2 1 1 1 1 1 2 0
42 42 42 41 40 39 38 36 34 32 31 28 26 25 24 16 6 4 7 4 7 4 6 5 1 0 2 3 3 3 4 2 3 1 2 2 1 1 2 4 5 4 5 2 2 2 5 2 1 2 2 2 1 1
42 42 43 43 41 39 37 35 35 33 32 29 27 25 19 24 15 5 3 6 5 7 6 5 1 2 2 1 3 2 2 3 5 1 2 2 4 0 6 9 5 3 3 2 2 2 2 2 2 3 2 2 4 4
42 43 42 43 41 42 40 37 36 35 34 32 30 24 7 6 4 3 8 8 3 5 5 4 6 4 0 1 1 3 2 3 2 2 2 2 2 7 9 7 4 6 6 6 2 3 2 3 2 0 2 2 3 1
45 45 44 44 44 40 39 40 39 38 38 35 12 5 3 2 8 7 8 5 6 5 5 4 1 3 1 2 1 4 3 1 1 4 3 3 7 6 7 7 5 3 6 8 6 0 0 3 6 4 5 3 3 2
45 45 46 45 44 43 42 43 43 42 35 5 5 4 2 5 4 5 3 4 2 4 1 3 4 6 3 5 4 1 3 0 3 5 4 3 7 6 2 4 3 5 6 6 2 2 3 4 5 6 4 4 4 2
44 44 46 47 45 45 45 46 48 18 6 11 14 8 4 5 4 6 3 1 3 7 2 6 4 4 1 3 5 1 4 4 3 0 5 5 8 5 2 2 0 2 3 4 2 6 4 4 3 4 4 5 5 4
46 47 50 48 47 48 49 48 33 34 31 6 8 6 4 1 4 10 10 5 3 6 6 4 3 5 3 4 5 4 5 5 2 4 6 8 4 4 5 2 1 1 2 3 2 1 4 3 2 2 2 1 3 3
47 49 52 50 50 51 50 40 44 27 8 7 7 7 7 6 7 7 7 7 4 5 9 5 5 4 1 6 2 6 3 3 4 2 9 5 7 5 3 1 4 3 2 4 3 1 3 3 3 0 1 1 3 1
49 52 52 50 52 53 46 44 36 5 4 6 6 8 8 3 3 1 2 5 1 8 6 6 5 4 3 6 2 5 4 4 8 8 6 5 4 5 4 3 3 5 4 3 3 4 4 4 4 2 3 2 3 3
51 51 29 51 52 50 45 33 6 3 4 5 5 6 1 5 2 2 1 4 3 6 3 5 5 5 1 6 4 9 7 8 7 6 4 2 2 4 5 5 5 4 4 4 3 3 3 4 5 5 3 3 2 2
50 13 51 53 50 47 37 8 4 5 4 5 1 2 3 3 5 5 4 4 4 4 4 5 6 7 4 4 2 6 8 6 5 4 2 5 5 5 5 5 4 4 4 4 3 2 2 2 3 3 4 2 3 3
21 35 54 53 40 30 4 4 5 4 4 1 4 3 3 2 6 3 2 5 5 3 4 6 8 4 7 7 6 6 6 3 3 3 2 2 2 2 4 6 4 5 4 3 3 4 3 4 4 2 2 1 3 4
32 37 56 55 28 15 7 3 4 5 2 2 2 2 3 4 1 3 6 4 2 3 8 4 6 5 6 6 5 3 3 4 4 3 2 1 2 6 6 5 6 4 5 4 2 2 2 2 1 2 2 2 3 1
56 58 58 44 25 7 7 4 4 5 4 4 3 3 4 4 0 4 5 3 3 3 3 3 6 5 6 5 5 4 4 5 5 4 2 1 1 4 5 5 4 5 5 3 4 4 3 2 2 2 2 2 3 1
50 40 46 25 8 8 6 4 5 3 4 4 3 3 4 3 4 3 2 1 4 3 2 5 4 4 1 2 2 2 3 5 5 5 5 4 3 3 5 3 5 3 3 3 3 1 2 2 2 2 3 3 2 2
26 42 22 9 8 6 6 4 7 4 4 3 3 3 5 4 2 2 1 3 3 5 4 4 3 3 1 2 3 3 5 5 3 3 8 12 6 3 3 4 5 3 3 3 3 4 3 3 3 3 4 3 3 3
36 21 7 6 8 6 4 1 6 2 6 4 1 6 3 2 2 2 2 2 4 3 3 2 3 2 3 3 3 4 3 5 4 3 4 4 4 3 5 5 3 5 4 3 2 4 4 5 5 5 5 4 6 6
16 8 7 5 6 6 4 4 3 5 5 3 5 7 3 3 1 2 4 3 3 3 2 1 2 4 4 3 1 2 0 2 5 4 3 5 5 3 3 3 3 3 2 6 5 5 5 5 8 6 6 7 6 6
12 5 7 7 3 8 6 4 4 4 5 3 6 3 4 3 3 3 3 2 2 2 3 3 3 3 4 0 1 2 3 1 4 6 1 3 6 4 4 2 2 1 2 7 4 6 5 5 6 7 7 7 9 8
10 2 3 6 4 6 8 8 6 7 6 5 4 3 2 3 3 6 4 2 1 2 2 2 1 2 2 2 3 1 2 2 1 4 1 2 3 4 5 5 4 3 4 2 8 8 8 7 8 10 8 9 11 10
7 4 3 2 5 7 7 4 3 6 6 6 6 6 5 6 8 1 1 3 2 2 2 2 2 1 1 0 1 2 2 2 3 4 5 4 3 2 2 4 4 2 8 7 7 9 11 10 10 9 9 7 5 7
4 4 7 3 6 2 9 6 5 5 5 3 8 4 8 3 3 2 3 3 3 2 2 2 1 1 1 1 2 2 4 3 7 7 6 7 5 4 4 4 6 11 6 6 7 8 9 9 10 10 10 9 7 3
4 3 1 6 7 9 8 5 4 1 1 2 5 4 4 3 2 3 3 4 3 2 3 3 4 3 3 3 3 3 3 3 4 5 4 2 1 2 3 4 6 6 6 7 11 9 10 9 9 9 9 8 7 6
5 4 6 6 8 6 3 2 2 1 4 4 6 6 5 3 3 3 4 4 3 2 1 2 2 1 2 2 1 3 3 2 1 3 5 5 5 5 3 6 7 6 7 9 10 12 16 12 13 9 9 7 6 6
2 3 7 7 7 3 2 0 1 3 4 5 7 6 7 6 2 3 6 5 3 2 3 4 4 4 3 3 2 2 1 2 2 2 1 5 8 7 6 6 7 7 7 9 9 9 10 9 8 10 9 9 8 8
4 4 6 8 4 2 1 2 4 5 4 5 4 3 3 4 5 4 5 5 4 5 6 4 4 4 4 3 2 2 2 1 1 2 5 6 6 7 7 6 7 7 8 9 8 9 10 10 9 8 8 9 8 7
4 5 6 7 5 4 3 3 4 5 5 4 5 4 4 4 4 1 2 1 0 2 3 3 3 3 3 2 1 2 3 2 4 10 11 11 10 9 6 5 6 7 10 9 8 9 10 11 10 8 7 7 5 5
Wind_Direction
184 182 177 177 179 178 179 176 173 174 170 172 172 169 168 163 150 96 110 29 109 100 80 65 55 92 12 63 128 271 38 343 25 57 96 254 102 246 40 249 137 139 87 76 51 59 343 344 332 123 244 337 23 76
186 183 179 176 177 178 179 171 172 171 169 168 169 166 161 158 142 114 91 6 80 78 114 91 91 88 84 114 341 338 148 164 180 87 29 103 20 26 156 335 325 22 161 187 153 202 236 261 43 211 192 140 66 102
179 179 177 175 177 176 174 170 170 167 167 167 165 164 160 156 135 108 121 140 70 93 64 56 91 53 55 50 82 75 317 145 90 156 148 156 78 108 51 280 301 299 167 126 53 288 238 252 307 313 26 89 65 91
179 180 174 171 176 175 171 169 168 165 165 164 162 160 156 146 128 116 122 155 92 108 113 271 305 85 60 354 210 175 227 48 92 64 102 121 124 183 223 227 191 204 84 193 273 286 316 286 228 266 344 31 75 64
175 174 172 175 173 171 168 166 167 163 162 160 157 155 147 136 113 88 87 135 124 123 146 136 14 1 19 32 54 47 91 77 66 40 52 191 39 82 346 58 273 183 188 144 224 220 152 250 293 343 107 184 344 100
174 176 174 172 171 168 166 166 163 160 158 156 153 149 141 139 125 88 35 310 131 118 102 109 269 10 0 21 45 35 32 69 87 115 101 95 120 101 95 217 258 242 308 231 214 39 88 324 360 20 120 312 314 337
176 175 173 171 168 169 164 162 159 157 152 150 147 143 143 125 80 107 182 196 138 94 88 101 2 19 61 31 13 4 22 54 86 89 47 127 93 54 140 218 249 264 225 244 222 105 22 355 200 359 76 66 90 88
174 173 171 166 163 162 160 158 155 153 146 143 138 132 121 103 110 43 346 93 89 90 69 111 230 170 54 7 31 360 20 22 13 190 46 31 330 226 253 245 252 250 312 287 213 5 141 125 78 39 23 20 44 32
173 170 169 163 163 159 155 155 151 147 139 132 125 119 80 42 76 215 107 78 60 113 124 95 136 213 16 80 159 34 62 46 296 102 68 59 271 230 222 217 238 210 191 181 125 86 57 114 179 289 93 51 93 303
169 167 163 160 158 158 153 150 147 139 131 132 118 69 91 293 132 129 13 31 20 341 37 104 11 132 115 73 63 77 27 78 99 264 341 85 260 270 244 216 207 208 177 151 103 298 318 265 208 197 208 193 166 172
167 166 163 157 158 155 151 147 143 136 140 99 99 85 90 96 59 35 61 93 326 354 42 150 153 137 326 118 167 53 176 282 79 260 115 310 277 249 246 229 238 213 190 192 186 131 168 165 170 173 187 191 170 155
162 161 159 153 155 150 149 148 146 135 148 145 110 98 80 57 50 103 172 208 187 216 173 137 181 144 128 91 99 345 128 44 229 340 71 282 252 255 217 241 100 81 154 178 162 146 125 101 111 135 145 162 182 173
164 161 156 156 154 152 151 151 142 127 120 97 73 86 109 239 112 172 184 201 220 175 181 167 111 125 57 63 63 96 88 215 11 50 228 231 264 277 229 180 307 355 94 121 147 146 148 132 64 77 120 351 125 154
161 159 155 155 155 152 151 148 144 141 115 104 129 142 181 188 221 179 179 174 193 121 135 112 96 118 132 64 139 99 237 84 43 334 236 241 219 222 202 180 118 207 178 156 181 218 202 183 180 36 30 117 140 194
157 155 153 156 154 151 151 151 155 94 94 119 122 187 189 143 53 159 139 99 215 139 121 98 63 86 30 95 66 111 39 250 204 228 231 235 224 169 176 185 179 162 166 175 166 161 173 152 138 85 14 35 60 57
153 150 154 152 150 146 149 151 109 80 60 99 82 105 66 76 69 41 114 111 203 149 98 60 111 71 238 133 101 212 136 223 245 223 228 151 206 191 174 191 190 174 168 150 144 147 134 138 146 155 110 73 83 115
148 142 153 148 144 145 145 105 80 51 100 92 134 43 123 90 143 151 146 177 158 105 138 121 101 189 101 52 271 199 204 217 215 247 232 192 180 192 176 146 164 158 144 141 119 99 106 101 112 87 98 0 44 46
144 146 146 139 138 131 57 52 91 92 101 139 128 183 96 71 111 127 170 142 133 122 133 174 127 124 174 173 244 230 223 238 208 200 218 232 202 182 153 153 145 151 133 111 115 128 107 101 113 174 142 113 87 46
144 144 140 141 135 116 108 79 70 95 103 124 106 74 74 102 12 88 133 99 104 141 113 58 92 176 220 214 207 230 221 192 169 199 198 259 180 151 143 129 129 122 129 126 136 137 123 112 131 138 130 105 117 53
143 143 140 139 127 92 92 92 91 110 157 152 94 67 77 84 86 99 95 62 96 96 64 125 204 212 189 225 194 182 166 150 132 91 31 356 142 137 147 146 147 134 115 88 83 113 103 59 36 70 78 99 109 109
133 142 135 123 69 62 81 101 80 92 111 85 135 79 78 40 71 116 106 65 56 190 221 207 224 251 254 256 205 139 132 152 179 157 162 145 173 150 137 114 120 127 129 149 142 136 112 173 158 116 91 79 63 81
128 131 120 69 79 74 81 8 108 105 75 119 108 91 95 90 114 147 177 66 225 239 187 175 218 155 115 199 190 194 151 122 111 101 87 114 133 148 172 156 145 151 146 168 158 160 151 146 127 113 109 104 97 83
121 117 72 78 89 66 93 304 88 108 120 161 130 94 60 102 230 292 138 202 253 240 199 155 151 129 135 302 72 61 93 119 112 95 86 85 82 75 111 136 144 141 153 168 136 131 129 142 135 121 118 107 105 93
84 65 82 84 82 103 129 78 92 109 110 115 98 106 146 140 183 46 198 220 249 312 66 132 124 78 36 2 73 165 6 101 104 72 53 106 99 41 47 86 67 51 55 115 124 119 130 132 137 132 125 117 108 105
87 27 91 77 91 115 102 118 108 87 105 131 100 121 182 149 107 181 209 213 355 354 336 338 56 49 134 80 348 325 326 130 141 127 299 96 110 92 69 51 66 125 146 125 135 133 129 134 135 132 128 128 127 119
82 17 89 131 139 124 162 128 148 136 119 101 81 98 151 130 137 219 176 87 18 345 340 7 46 22 44 22 137 185 256 325 50 90 264 169 163 148 160 158 165 216 199 149 139 142 145 145 140 136 127 127 131 127
108 100 55 9 98 108 94 72 102 105 110 131 158 156 152 159 210 196 97 42 39 347 253 249 178 181 237 225 8 346 337 17 71 106 102 70 45 16 122 150 178 166 146 151 141 146 146 146 142 137 130 125 134 142
74 24 125 169 88 21 114 97 114 123 142 148 136 136 158 150 132 26 17 6 4 352 351 337 326 218 182 183 152 102 67 69 91 96 97 67 43 27 28 46 83 101 104 110 120 126 135 139 140 141 141 137 130 105
49 350 40 61 74 52 43 50 107 74 7 139 105 106 102 67 359 345 343 338 342 68 49 27 1 9 25 27 37 44 73 86 97 107 102 125 40 5 5 79 89 93 101 103 104 105 109 116 121 122 118 115 110 101
24 339 87 52 55 58 353 337 70 80 41 76 107 112 93 79 21 345 5 12 33 43 334 235 266 94 134 106 108 37 9 24 46 137 155 177 184 151 129 117 114 112 116 118 122 120 109 107 108 107 111 115 115 116
278 42 79 58 74 37 77 41 129 90 64 54 42 68 111 132 129 36 30 11 356 2 38 31 39 23 56 51 98 100 343 336 313 282 166 107 125 130 126 122 126 125 121 118 120 128 130 125 128 130 129 128 134 138
23 41 120 101 110 167 254 43 64 62 48 49 55 70 100 88 72 18 7 357 15 25 15 18 24 356 324 277 262 237 241 187 350 74 113 117 111 111 110 106 104 109 113 116 120 127 128 129 130 134 137 142 146 150
40 16 71 109 111 149 176 129 80 96 54 58 47 45 44 55 93 314 319 57 14 306 321 318 306 303 316 340 52 76 102 168 141 109 104 101 104 103 93 93 103 114 118 119 120 128 129 130 134 136 132 134 134 142